Zurück zum Katalog

FENGYUN 1C DEB

AktivSSO
NORAD 30717·DEBRIS·🇨🇳 China

Gestartet May 10, 1999 von Taiyuan Satellite Launch Center

Loading…

Nächste Überflüge (nächste 24 Stunden)

TLE

AktuellSource: Space-Track

Epoche: Sep 14, 2026, 03:45 UTC

1 30717U 99025ASB 26257.15675884  .00001768  00000-0  81192-3 0  9995
2 30717  99.0040 338.4461 0047915 188.6051 171.4309 14.21977650  4412

Verfolge FENGYUN 1C DEB in Echtzeit mit AllMySat

Download on the App Store